Theta_e
314 314 314 314 314 314 314 315 315 315 316 316 316 316 316 316 317 318 318 319 320 320 321 321 322 322 322 323 323 324 324 324 324 324 324 324 324 324 324 323 322 322 322 321 320 319 319 319 318 318 318 317 317 317 316 316 315 314 315 315 315 316 316 316 316 316 317 316 316 315 314 313 313 313 313 313 312 311 311 311 310 310 310 310 309
312 312 313 313 313 313 313 313 314 314 315 315 316 315 315 316 316 316 317 318 318 319 320 320 321 321 322 322 323 323 324 324 323 323 322 323 323 323 323 322 321 321 321 320 319 319 318 318 317 317 317 316 317 316 315 315 314 313 314 313 314 315 315 315 315 316 316 316 315 314 314 313 312 313 313 312 312 312 311 311 311 310 310 310 309
311 311 312 312 312 312 312 312 312 312 313 314 315 315 315 315 314 314 314 315 316 318 318 319 320 321 321 322 322 323 323 323 323 322 322 322 322 322 323 322 320 319 319 320 319 318 317 317 316 317 317 316 316 316 314 314 313 313 313 313 313 314 314 314 314 315 316 316 314 314 313 312 311 312 312 311 311 311 310 310 310 310 309 309 309
311 311 311 311 312 312 311 311 311 311 311 312 314 314 314 314 313 313 313 313 313 315 317 318 319 320 321 321 322 322 322 323 322 322 321 321 321 321 321 321 320 318 318 319 318 316 316 316 316 317 317 316 316 315 314 314 313 313 314 313 313 313 313 313 313 314 315 316 315 313 312 312 311 311 311 310 310 310 310 310 309 309 309 308 308
311 311 311 311 312 311 311 311 310 311 310 311 312 314 314 313 313 312 312 311 311 313 315 317 318 319 320 321 321 322 322 322 322 321 321 320 320 320 320 320 319 317 317 318 317 315 316 316 316 317 317 316 316 315 314 314 313 313 313 313 312 313 313 313 313 313 313 315 315 313 312 312 311 310 310 309 310 310 310 309 309 309 309 308 308
310 310 311 311 311 311 310 310 310 310 310 310 311 313 313 313 312 312 311 311 311 311 313 315 316 318 319 320 321 321 321 321 321 321 320 319 319 319 319 319 318 317 316 316 315 314 315 315 316 317 316 315 316 315 314 314 313 313 313 313 312 313 313 313 312 313 313 313 313 313 312 311 310 310 309 309 309 310 310 310 309 308 308 308 308
310 310 310 311 311 310 310 309 310 310 310 310 311 312 312 311 311 311 310 311 311 310 311 313 315 317 318 319 321 321 321 321 320 320 319 318 318 318 318 318 317 316 315 315 314 313 313 314 314 315 315 314 315 315 315 314 313 313 313 313 312 313 313 312 312 312 312 312 313 312 312 311 310 310 310 309 308 309 309 310 310 309 308 308 308
310 310 310 310 310 310 309 309 310 310 310 309 309 310 310 310 310 310 310 310 310 310 310 311 314 316 317 318 320 321 321 321 320 319 318 318 317 316 316 316 316 315 314 314 313 312 313 313 313 314 313 313 314 314 314 314 313 313 313 313 313 313 313 312 312 312 312 312 312 311 311 311 310 310 310 309 308 309 308 309 310 309 308 308 308
309 309 309 309 309 309 309 309 309 310 310 309 309 309 309 309 309 309 309 309 310 310 310 311 313 315 316 317 318 320 320 321 320 319 318 317 316 315 315 314 314 314 313 312 311 311 312 312 313 313 313 312 312 313 313 313 312 312 313 313 313 313 312 312 312 311 312 311 311 311 310 310 310 310 310 309 309 309 308 308 309 309 308 308 308
309 308 308 308 308 308 309 308 308 308 309 309 309 309 309 308 308 308 308 309 309 310 310 311 312 314 315 316 317 319 320 320 319 318 317 317 316 315 314 314 313 312 312 311 312 311 310 310 311 311 310 310 311 310 310 310 310 311 313 313 312 312 312 311 312 311 311 312 311 311 311 311 311 310 310 310 309 309 308 308 308 308 308 308 308
308 308 308 308 308 308 308 308 308 308 308 308 308 308 308 307 308 308 308 308 309 310 310 311 312 314 315 315 316 318 319 319 319 317 317 317 316 314 314 313 312 312 311 311 312 312 311 310 309 308 309 310 309 308 307 307 306 308 311 312 311 312 312 312 311 311 311 311 311 310 311 311 311 310 310 309 309 308 308 308 308 308 308 309 309
307 307 307 307 308 307 307 307 307 307 307 307 307 308 307 307 307 307 308 309 310 310 310 310 311 314 315 315 315 317 318 318 318 317 317 317 316 314 314 313 313 313 312 311 312 312 312 311 309 309 309 310 309 307 306 306 305 306 308 309 308 308 309 310 311 311 310 310 310 310 310 310 311 310 309 309 308 307 307 307 307 308 308 308 309
307 307 307 307 307 307 307 307 307 306 307 307 307 308 307 307 308 308 309 309 310 310 310 310 312 314 315 315 315 315 317 318 317 315 316 317 316 314 313 313 313 313 312 312 313 313 313 312 311 310 310 310 310 309 308 307 306 306 306 306 306 305 305 306 307 309 310 310 310 310 310 310 310 310 309 308 308 307 307 307 307 307 307 308 308
307 307 307 306 307 307 307 307 306 306 307 307 308 308 308 308 309 309 309 310 310 310 310 311 312 315 316 315 314 314 316 317 315 314 315 316 316 315 313 313 313 313 313 313 313 313 313 313 311 310 310 310 310 310 310 308 306 306 306 306 306 305 304 303 304 306 308 309 309 309 309 309 309 308 308 307 307 307 307 307 306 306 306 307 307
307 307 306 306 306 306 306 306 306 306 307 307 308 308 308 309 309 309 309 310 310 310 310 311 313 315 315 315 314 314 315 315 315 314 315 315 315 315 314 313 313 313 313 313 313 313 313 313 312 311 311 311 311 311 312 310 308 307 307 307 307 306 305 304 303 304 306 307 308 308 308 307 307 307 307 306 306 306 306 306 306 305 306 306 306
307 306 306 306 306 306 306 306 306 307 307 307 308 308 308 309 309 309 309 309 309 310 310 311 313 313 313 314 315 315 315 315 315 314 314 315 315 315 314 314 313 314 314 314 314 314 313 313 313 312 311 312 312 311 310 309 308 308 307 307 307 307 307 305 304 304 305 305 306 307 307 306 306 307 306 305 305 305 305 306 306 305 305 306 306
307 306 306 306 305 306 306 306 306 307 307 307 307 307 308 309 309 309 309 309 309 310 310 311 311 311 311 312 313 313 314 315 314 314 314 313 313 314 314 313 313 313 314 314 314 314 314 313 313 313 312 311 312 310 308 307 308 308 307 307 307 307 307 306 305 304 304 304 305 306 306 305 304 305 305 305 305 305 305 306 306 306 307 307 307
306 306 306 305 305 305 305 305 306 307 307 307 307 307 308 309 309 308 308 309 309 309 309 310 310 310 310 311 310 310 311 314 314 313 312 312 313 314 313 313 313 312 313 313 313 312 313 312 312 312 312 311 310 309 307 307 308 308 307 307 307 306 307 306 305 303 302 302 303 303 304 304 303 303 303 303 303 303 304 306 306 306 307 307 307
306 305 305 304 304 304 305 306 306 306 306 306 307 307 307 308 308 308 308 308 308 308 308 309 310 310 310 311 310 310 311 313 313 312 312 313 313 313 313 313 313 313 312 312 311 310 310 310 310 310 310 309 309 308 306 306 307 308 307 307 307 306 306 306 305 304 302 302 302 303 303 303 302 302 302 302 301 301 302 305 306 305 306 307 307
305 305 305 304 304 305 305 306 306 306 306 306 306 307 307 307 307 307 307 307 307 307 308 308 309 309 310 311 311 311 312 313 312 311 311 313 314 313 313 313 313 313 312 311 311 310 309 309 309 309 309 308 308 306 305 305 306 306 307 307 306 307 306 306 305 304 304 303 303 304 304 304 304 304 303 302 302 300 301 303 304 304 305 306 307
305 304 304 304 304 304 305 305 306 306 306 306 306 306 306 306 306 307 307 307 307 307 307 308 308 308 309 310 311 311 311 311 310 309 310 312 314 313 312 312 312 312 312 311 310 310 309 309 308 308 309 309 308 306 304 303 304 305 306 307 306 307 307 306 305 305 304 305 304 304 304 304 304 305 304 304 303 302 301 301 302 303 304 305 306
304 304 304 303 303 303 304 305 305 305 305 305 305 306 306 306 306 306 306 306 306 306 307 307 308 307 308 310 311 311 309 309 309 309 308 310 312 312 312 312 312 311 311 311 310 310 310 309 309 309 309 310 308 305 303 303 303 305 306 306 306 306 306 305 304 303 302 302 302 301 301 301 302 303 304 304 304 303 302 302 301 302 304 305 305
304 304 304 303 303 303 303 304 304 305 305 305 305 305 305 305 305 306 305 306 306 306 306 307 307 307 308 309 310 311 310 309 309 308 307 307 309 311 311 311 311 310 311 311 310 310 309 309 309 309 308 309 307 304 304 304 304 305 306 306 305 305 304 303 302 301 300 300 299 298 298 298 298 299 300 301 302 303 304 304 303 303 304 305 304
304 304 304 303 303 303 303 303 303 303 303 304 304 304 304 305 305 305 305 305 305 305 306 306 307 308 309 309 309 310 310 310 309 309 307 307 308 309 310 311 311 310 309 310 310 310 309 308 309 309 308 308 306 304 304 304 303 304 305 305 304 304 303 302 302 302 301 301 299 298 297 296 296 297 297 298 301 304 305 305 305 304 304 304 304
304 304 304 304 303 303 303 302 302 301 301 302 303 303 304 304 304 304 305 305 305 305 305 306 308 308 309 309 309 309 309 309 309 309 308 307 307 308 309 310 310 310 309 308 308 309 308 308 308 308 308 307 305 303 304 303 301 302 303 303 303 303 303 302 303 303 302 302 301 298 296 295 296 299 300 301 303 306 306 306 305 305 304 304 304
304 304 304 304 303 303 303 302 301 301 301 301 301 302 302 303 303 304 304 304 304 305 305 306 307 308 308 308 308 308 308 309 309 308 307 307 307 307 308 309 309 310 310 308 307 307 307 306 306 306 306 305 303 303 305 303 300 300 301 301 302 302 303 303 304 304 304 304 303 299 296 296 299 302 304 305 305 305 305 305 305 304 303 303 304
305 305 304 304 304 303 303 302 301 301 301 301 300 300 301 301 302 303 304 304 304 304 305 306 307 307 307 307 307 307 307 307 307 306 305 304 304 305 307 308 308 308 308 308 307 306 305 305 305 305 304 304 303 303 305 304 302 302 302 302 302 303 303 304 304 304 304 305 305 301 296 297 300 301 302 304 305 305 305 304 304 304 304 303 304
305 305 305 304 304 303 303 302 301 301 301 300 300 300 300 300 301 301 303 304 304 304 304 305 306 306 306 306 306 306 306 306 305 303 302 301 301 303 305 307 307 307 307 307 307 306 304 304 303 303 302 302 302 303 303 303 303 303 303 303 303 304 303 303 303 304 304 304 304 302 297 296 298 299 300 303 305 305 304 304 304 304 304 303 304
305 305 305 304 304 304 303 302 301 301 301 300 300 300 299 300 300 301 302 302 303 303 304 304 305 306 306 306 306 306 306 305 303 301 300 301 301 301 303 305 306 306 305 306 306 305 304 303 302 302 302 302 302 302 302 302 302 303 303 304 303 303 303 303 303 304 305 304 304 303 300 297 296 298 300 302 304 305 304 304 304 304 303 303 303
305 305 305 304 304 304 303 302 301 301 301 301 300 299 299 299 299 300 301 301 301 301 302 303 303 304 304 305 305 305 304 303 302 301 300 301 300 301 302 304 306 306 305 304 304 305 305 304 303 303 302 302 302 302 303 303 303 304 304 304 304 303 303 303 303 303 303 303 303 303 301 297 296 297 299 301 303 304 304 303 304 303 303 303 303
305 305 304 304 304 304 303 302 302 301 301 301 300 300 299 299 299 300 301 301 300 301 302 302 302 303 303 304 304 304 303 302 301 301 301 301 301 301 301 302 305 306 305 303 303 304 305 305 305 304 304 303 303 303 303 303 303 303 303 303 303 303 303 303 303 302 302 302 302 302 301 299 296 296 297 299 302 303 304 304 304 303 303 303 303
305 305 304 304 304 304 303 303 302 302 301 301 300 300 299 299 299 300 300 300 300 301 302 302 302 302 302 302 303 303 303 302 301 301 301 301 301 301 300 301 302 304 304 303 301 302 304 305 305 306 306 305 305 305 305 304 303 303 302 302 302 302 303 303 302 302 302 302 302 302 302 301 299 296 295 297 300 302 303 303 303 303 302 302 302
305 304 304 304 303 303 303 303 302 302 302 301 301 300 299 299 299 299 299 299 300 301 302 303 302 301 301 302 302 303 303 302 302 302 302 302 301 301 301 301 301 301 302 302 301 302 303 304 304 304 305 305 305 305 305 305 304 304 303 302 301 302 302 301 301 301 301 301 302 303 303 302 302 299 297 296 298 300 302 303 303 302 302 302 302
306 305 304 304 304 303 303 303 303 302 302 301 301 300 300 299 299 299 299 299 300 301 302 303 303 302 301 302 303 303 303 302 302 302 302 302 301 300 301 301 301 301 302 302 302 303 303 304 303 302 302 303 303 303 304 304 304 303 302 301 301 302 301 301 300 301 300 301 301 302 302 301 301 301 299 297 297 299 301 302 303 303 302 302 302
306 306 305 304 304 304 304 303 303 302 302 302 301 300 300 300 299 298 298 298 299 301 302 303 303 302 301 301 302 303 303 302 302 302 302 301 301 300 301 302 303 302 302 303 302 302 302 302 302 302 302 302 302 302 302 302 302 302 301 301 301 301 300 299 299 300 300 301 301 301 300 300 300 300 300 298 297 298 300 302 302 303 303 302 301
307 306 306 305 305 305 304 304 303 303 302 302 301 300 300 300 299 298 298 297 299 300 301 302 303 302 302 301 302 303 303 302 302 302 302 301 300 300 301 302 302 302 302 302 302 301 301 301 301 302 302 302 302 301 301 301 301 300 300 300 300 300 300 299 299 299 299 301 301 301 300 300 299 298 297 296 296 297 299 301 302 302 302 302 302
307 306 306 305 305 305 304 304 303 302 302 301 301 300 300 300 299 298 297 297 298 300 301 302 303 303 302 302 301 302 302 302 301 301 301 301 300 300 301 301 301 301 302 301 301 301 300 300 301 301 301 302 302 302 302 301 300 300 299 299 300 301 300 300 299 299 299 300 300 300 299 298 297 297 296 296 296 296 297 299 300 301 301 302 302
306 306 306 305 304 304 304 303 303 302 302 301 301 301 300 300 299 298 297 298 299 300 301 302 303 302 302 301 301 300 301 301 301 300 300 300 300 300 301 301 301 301 301 300 300 299 299 300 300 300 300 301 301 301 301 301 300 300 299 299 299 299 299 299 298 299 299 299 299 299 298 297 297 297 297 296 296 296 296 297 298 299 300 301 301
306 305 305 304 303 303 302 302 302 302 301 301 301 301 300 300 299 298 297 298 299 301 302 303 302 301 301 301 300 300 300 300 300 300 300 299 299 300 300 300 300 300 300 300 299 299 299 299 299 300 300 300 300 300 300 300 300 300 299 299 298 298 298 298 298 298 299 299 299 298 298 297 297 297 297 296 295 295 296 297 298 299 300 300 301
305 304 304 304 304 303 302 301 301 301 301 301 301 300 300 299 298 298 298 298 300 301 301 301 301 301 300 299 298 299 299 300 299 299 299 299 298 299 299 299 299 299 299 299 299 299 299 299 299 299 299 299 299 299 299 299 299 299 299 299 298 298 298 298 298 297 297 297 298 298 297 297 296 296 296 296 295 295 297 298 299 299 300 300 300
304 304 304 304 304 303 301 300 300 300 300 300 300 300 300 299 298 298 299 300 300 301 301 301 300 300 300 298 296 296 298 299 299 299 298 298 298 299 299 299 298 298 298 299 299 299 299 299 299 299 299 298 298 298 298 298 298 298 298 298 297 296 296 297 297 297 297 297 297 297 296 296 295 295 295 296 296 295 296 298 299 299 300 300 300
303 302 303 304 304 302 301 301 300 300 300 299 299 299 299 298 298 298 299 300 301 301 301 301 300 300 300 298 296 296 297 299 298 298 298 298 298 298 299 298 298 298 298 298 298 298 298 298 298 298 298 298 298 297 297 297 297 297 296 296 296 295 295 295 295 295 295 295 296 295 295 295 295 295 295 296 296 296 296 298 299 299 299 299 299
302 302 302 303 304 302 301 301 301 300 299 299 298 298 298 298 298 299 300 300 300 300 300 300 299 299 299 298 297 296 297 298 298 298 297 297 297 298 298 298 297 297 297 297 297 297 297 297 297 297 297 298 297 297 297 297 297 296 295 296 296 296 295 295 295 294 294 293 294 294 294 293 293 293 294 295 296 296 297 297 298 299 299 298 298
302 302 302 303 303 302 301 301 300 299 299 298 298 298 298 299 299 299 300 300 300 300 300 300 299 299 298 298 298 297 298 298 297 297 297 297 297 297 297 296 296 296 296 296 296 296 296 296 297 297 297 297 297 297 297 297 297 296 296 296 296 296 296 296 296 295 295 294 294 294 294 293 293 294 294 294 295 295 296 297 298 298 298 298 299
302 302 302 302 302 302 301 300 298 297 298 298 298 299 299 298 299 299 299 299 299 299 299 299 298 298 298 297 297 297 297 297 296 296 296 296 296 296 296 295 295 295 295 295 295 295 295 295 295 295 296 296 296 296 297 297 297 297 297 297 296 296 296 296 296 296 296 296 295 295 294 294 294 294 294 294 294 294 296 297 297 297 298 298 298
302 302 302 302 302 302 301 299 298 297 299 299 299 299 298 298 298 298 298 298 298 298 297 297 297 297 297 296 296 295 295 295 295 295 295 295 295 295 294 294 294 294 294 294 294 294 294 293 293 293 294 294 294 295 296 296 297 297 298 298 297 297 297 296 296 297 297 297 296 296 296 295 295 294 294 294 294 294 295 296 297 297 297 297 298
302 302 302 302 302 302 301 299 298 298 299 299 299 299 298 298 298 298 297 297 296 296 296 296 296 296 296 295 295 294 294 293 293 293 294 293 293 293 293 293 292 292 293 293 293 293 293 293 292 292 292 292 293 294 294 294 295 296 296 296 296 297 297 297 297 297 297 297 298 297 297 296 296 295 294 294 293 293 294 295 295 296 296 296 296
302 302 302 302 302 302 300 299 299 298 298 298 299 298 297 297 297 297 297 296 296 295 295 295 295 295 295 294 293 293 293 292 292 292 292 292 292 292 292 291 291 291 292 292 292 292 292 292 291 291 291 291 292 292 292 293 294 294 294 294 295 296 296 297 296 296 297 297 298 298 298 297 296 296 295 294 293 293 293 294 294 294 294 295 295
302 302 302 302 302 301 301 300 300 299 299 299 299 298 297 298 298 297 297 296 296 295 295 295 294 294 294 293 293 292 292 292 292 291 291 291 291 291 291 290 290 290 290 291 291 290 290 290 290 290 290 290 290 290 291 291 292 293 293 293 294 294 295 295 295 296 297 297 297 297 298 298 297 296 295 294 293 293 293 293 294 294 293 294 294
302 302 302 301 301 301 301 300 299 299 299 299 298 298 297 298 297 297 296 296 296 295 295 294 294 294 293 293 292 292 291 291 291 291 290 290 290 290 290 289 289 290 290 290 290 290 290 290 289 289 289 289 289 289 289 289 290 291 292 292 293 293 293 293 294 295 296 296 296 296 297 298 298 297 296 295 294 293 293 294 294 294 294 295 295
302 302 302 301 301 301 301 300 299 299 299 298 297 297 297 297 297 297 296 296 295 295 295 294 294 293 293 293 292 292 291 291 291 290 290 290 290 289 289 289 289 289 289 288 289 289 289 289 289 288 288 288 288 288 287 287 288 290 291 291 292 292 293 293 293 293 294 295 296 296 297 298 298 297 296 295 295 294 294 293 293 293 294 295 295
Wind_Speed
10 10 11 11 11 12 12 12 12 12 12 12 12 12 12 12 13 13 14 14 14 15 15 15 16 17 17 16 16 16 15 16 18 19 19 20 21 21 22 23 22 19 17 17 16 15 16 16 15 15 14 13 11 10 10 9 9 8 7 7 8 7 8 8 7 6 6 6 6 7 7 8 10 9 7 7 6 5 5 5 5 4 4 5 8
12 12 12 12 12 13 12 12 12 13 13 12 12 12 12 13 13 14 14 14 15 15 16 16 16 16 17 16 15 15 15 15 17 19 20 21 23 24 23 23 25 23 18 18 18 16 15 16 16 15 15 13 12 11 10 10 9 9 9 8 8 8 8 8 8 7 7 7 7 8 8 8 9 8 6 7 7 6 7 7 5 4 4 4 5
13 13 13 13 13 13 13 13 13 14 14 13 13 13 13 13 14 14 15 15 15 15 16 17 16 16 17 16 15 15 15 14 16 18 19 20 24 26 24 23 28 30 24 20 20 18 15 16 16 16 15 14 13 12 11 10 10 9 9 8 7 7 7 7 8 7 7 7 8 8 8 8 8 7 6 6 6 5 7 7 5 4 4 4 4
14 15 15 14 14 14 14 14 14 15 15 14 14 14 14 14 14 14 15 15 16 17 16 17 16 16 17 16 15 15 14 14 15 17 18 19 21 23 23 23 27 31 28 23 20 18 16 16 16 16 16 15 14 13 12 11 10 9 9 8 7 7 7 7 7 7 7 7 7 8 8 8 8 8 6 5 6 6 6 5 4 4 4 3 3
15 16 15 15 15 14 15 15 15 15 15 15 16 16 15 14 14 15 15 16 17 17 17 17 16 16 17 16 15 15 15 15 14 16 18 19 19 20 23 26 26 27 27 22 18 17 15 15 15 15 15 15 15 14 13 13 11 10 9 9 8 8 7 7 7 7 7 7 7 7 7 7 7 7 6 6 6 7 6 4 4 3 3 2 2
16 16 15 15 15 15 15 15 15 15 16 16 16 16 15 14 15 16 16 17 18 18 18 18 17 17 17 16 15 14 15 15 15 15 16 18 19 19 22 26 28 28 25 20 18 17 15 15 15 14 14 14 14 13 13 13 12 10 10 10 8 8 8 7 7 7 8 8 7 7 7 7 7 7 6 6 6 7 6 5 3 2 3 3 3
16 16 15 14 14 14 15 15 15 15 16 17 16 16 15 15 16 17 17 18 18 18 19 19 18 18 17 16 15 14 14 14 14 15 15 16 17 17 19 24 28 30 27 21 17 16 14 14 14 13 14 14 13 12 12 13 12 11 11 10 9 9 8 8 8 8 8 8 8 8 8 8 8 8 7 6 6 7 7 6 5 4 3 4 3
15 15 14 14 14 14 15 15 15 15 16 17 17 16 17 17 17 18 18 18 18 18 19 20 19 18 17 16 14 14 14 13 13 14 13 14 15 16 18 23 27 30 28 23 18 16 14 13 12 12 13 12 11 11 11 11 11 11 11 10 10 10 9 8 9 8 8 9 9 8 9 9 8 8 7 7 7 7 6 7 6 4 4 4 3
14 14 14 14 14 15 15 14 15 15 16 17 17 17 18 19 19 19 20 20 19 19 20 21 20 18 17 16 14 13 14 13 13 14 13 13 15 15 17 22 26 28 26 22 20 18 16 14 13 12 12 12 11 11 11 11 10 9 10 11 10 10 10 9 9 9 9 9 9 9 9 10 10 9 9 9 8 6 5 6 6 5 5 5 4
14 14 15 14 14 15 14 14 15 15 16 16 17 18 19 20 20 21 21 20 20 20 20 20 21 19 17 16 14 12 12 12 14 15 15 14 15 15 14 17 22 25 25 23 21 20 19 18 16 15 14 13 13 12 13 13 12 10 9 11 10 9 10 10 9 9 9 9 10 10 10 11 11 10 9 9 8 6 6 7 6 5 6 6 5
13 14 15 14 14 14 14 15 16 16 16 17 18 19 20 20 21 21 21 21 20 20 20 20 20 20 18 16 15 13 11 12 15 15 15 15 14 14 13 15 19 22 24 25 23 21 20 20 19 18 17 16 15 14 14 14 14 13 11 12 12 10 9 9 9 9 10 9 9 11 11 11 11 11 10 9 8 7 7 7 6 6 7 7 6
13 14 14 14 13 14 15 15 16 17 17 18 19 19 20 20 21 21 21 21 20 20 19 19 20 20 18 17 16 14 11 12 15 15 13 14 15 15 16 17 17 18 21 23 23 22 21 21 21 19 19 19 16 15 15 15 15 15 14 13 13 13 11 10 9 8 9 11 11 11 12 12 11 11 10 9 9 8 8 7 6 6 6 6 5
14 14 14 14 14 15 15 16 17 18 18 19 19 19 20 20 20 20 20 20 20 20 19 18 18 18 17 16 17 15 12 12 14 15 13 12 15 18 21 22 21 20 21 21 21 22 21 21 22 21 19 19 17 15 15 17 17 16 15 14 13 13 12 12 13 10 7 9 12 11 11 11 11 10 10 10 10 9 8 7 6 5 5 5 4
14 15 15 15 15 15 15 16 17 18 18 19 18 19 19 19 19 19 19 19 20 20 19 18 17 16 15 17 18 16 14 13 14 14 13 12 12 17 23 25 26 26 25 24 24 24 23 23 25 24 21 19 18 16 15 17 19 17 15 13 11 11 10 10 14 15 10 8 10 11 10 10 9 9 10 10 11 10 8 7 7 6 4 4 4
14 15 16 16 16 15 16 17 17 17 17 18 18 18 18 18 18 18 18 18 19 20 19 17 15 14 14 17 18 17 15 15 14 13 13 12 10 12 20 25 27 27 27 27 27 26 26 27 26 25 22 20 19 19 17 16 17 16 14 12 11 9 8 7 9 13 12 9 8 8 8 10 10 9 11 12 10 9 7 5 5 5 5 5 5
15 16 16 16 16 16 16 16 16 16 16 17 17 17 18 18 19 18 18 18 18 19 18 16 14 13 14 14 16 17 15 15 15 13 13 14 12 10 13 19 23 26 28 29 28 27 27 29 27 25 25 22 21 22 21 17 16 16 14 13 11 8 9 9 10 12 13 12 11 8 7 11 11 10 13 13 10 8 7 6 6 6 6 7 6
15 16 16 16 16 15 15 16 15 15 15 16 17 17 18 19 18 18 18 19 18 18 18 17 15 14 13 12 13 15 15 15 16 15 13 14 14 12 11 13 17 21 25 26 26 25 25 26 26 25 26 25 24 24 23 20 17 16 15 13 11 9 9 11 12 14 15 14 13 11 9 12 13 12 14 15 12 9 8 7 7 8 7 6 6
15 15 15 16 16 15 15 15 15 15 16 17 17 18 18 18 18 18 18 18 18 18 17 17 16 15 14 13 13 14 14 13 15 16 14 13 12 10 9 10 12 15 19 21 21 22 23 23 24 24 25 26 26 24 23 22 19 17 15 13 12 11 11 11 11 14 16 14 13 13 11 13 15 15 15 16 13 11 9 7 6 6 6 5 4
15 15 16 16 16 16 16 16 16 16 17 17 17 18 18 18 18 18 18 18 18 18 17 17 17 17 16 15 14 13 12 11 13 14 13 11 11 9 7 9 10 11 14 16 18 19 21 21 23 25 25 25 25 23 22 22 20 18 16 14 12 12 12 11 10 12 14 14 13 12 11 12 15 16 15 16 15 13 11 8 6 5 5 4 3
15 16 16 16 16 16 15 15 15 16 16 17 17 17 17 17 18 19 19 18 18 18 18 17 17 17 16 16 14 12 10 10 12 13 12 11 11 9 8 9 10 10 10 12 13 14 16 18 21 24 25 24 23 23 22 21 21 20 17 15 13 13 13 13 12 12 12 13 12 12 11 11 12 13 13 15 15 15 14 11 7 6 6 4 4
14 15 16 16 16 16 15 15 15 15 16 16 16 17 17 17 17 18 18 18 18 18 18 18 17 17 16 15 14 12 11 10 12 14 13 12 10 9 8 9 10 9 9 10 10 11 13 16 19 22 24 23 22 23 23 22 21 19 17 16 14 13 12 13 13 12 12 12 12 12 11 11 12 12 12 13 14 15 15 14 10 8 7 5 3
15 15 16 16 16 16 16 15 15 15 15 15 16 16 16 16 17 17 17 18 19 19 19 17 16 16 15 14 13 13 12 12 12 14 14 13 12 9 7 7 8 8 8 9 11 11 12 14 18 21 23 23 22 22 22 22 20 19 18 17 14 11 11 11 11 12 11 11 11 11 11 11 12 12 12 12 12 13 14 13 11 10 8 5 3
15 15 16 16 17 17 16 16 16 15 15 15 16 16 16 16 17 17 17 18 19 19 18 17 16 16 14 13 13 12 12 11 12 14 15 14 13 11 8 7 7 7 7 8 10 11 12 15 19 22 22 22 23 22 22 21 20 20 21 19 15 12 11 9 9 10 10 8 8 9 9 10 11 11 12 12 12 13 12 11 11 11 9 7 6
14 15 16 16 17 17 17 18 17 16 16 15 15 15 16 16 16 16 16 17 17 18 18 17 16 15 14 13 13 13 12 11 12 14 17 17 14 12 10 9 8 7 7 6 7 8 10 14 19 22 22 23 23 22 22 21 20 21 21 19 17 15 13 10 9 9 8 7 6 6 7 8 9 9 11 11 11 12 12 11 11 11 10 8 7
15 15 16 17 17 17 18 19 18 17 15 15 14 15 15 15 16 16 16 16 16 16 17 17 16 14 13 13 13 13 13 11 10 11 15 17 16 15 13 11 9 8 7 6 5 6 7 9 13 17 20 23 23 22 22 21 19 19 19 17 17 17 15 12 11 10 9 8 7 6 6 7 7 7 7 9 11 12 12 12 12 11 10 7 5
16 16 16 17 17 18 18 19 18 17 15 14 14 14 14 15 15 15 15 15 15 15 16 16 15 14 14 13 13 14 13 11 9 11 14 15 15 16 15 13 10 9 9 8 8 9 8 6 7 11 17 22 23 22 22 22 19 17 18 18 17 17 15 14 13 11 10 8 7 5 5 5 6 5 6 9 11 12 13 13 12 11 11 8 6
16 16 16 17 17 18 18 17 17 17 16 15 15 14 14 14 15 15 15 15 15 15 15 16 15 14 14 14 13 14 13 10 11 14 16 16 16 16 14 12 10 9 8 7 7 8 8 6 5 7 12 19 22 20 20 20 20 20 20 20 19 16 14 14 13 11 10 8 6 5 5 6 6 7 8 10 11 12 13 13 12 11 11 9 7
15 16 16 16 16 16 17 17 17 17 17 17 16 14 14 14 14 15 14 14 15 15 15 15 15 14 14 14 14 14 13 11 13 15 17 18 19 18 15 12 9 6 5 4 5 5 6 6 6 6 10 15 17 16 16 18 19 20 20 19 18 17 16 16 14 11 10 9 7 6 6 7 7 8 9 11 12 13 13 14 12 11 11 10 8
14 16 16 15 15 15 16 17 18 18 18 17 16 15 14 13 13 13 13 14 15 14 14 14 14 13 13 13 13 13 12 11 13 15 16 17 18 18 16 14 11 8 7 5 5 5 5 6 7 8 10 13 14 13 15 16 16 17 17 16 16 18 20 19 15 12 11 11 10 9 7 7 7 8 9 10 12 13 13 14 13 11 11 11 10
14 15 17 16 15 15 17 18 17 17 18 18 17 16 15 14 12 10 11 14 16 15 15 14 14 13 13 12 12 12 12 11 12 14 14 15 16 16 15 14 13 11 9 6 4 5 6 7 8 9 11 13 15 14 15 16 15 15 15 14 14 17 21 21 17 15 15 14 12 10 9 8 8 8 8 9 10 12 14 14 14 13 12 12 11
14 15 18 17 15 15 16 18 17 17 17 17 17 17 17 16 13 10 9 13 16 16 15 14 13 13 13 13 12 11 11 11 11 12 13 15 16 16 15 13 12 10 8 3 2 4 6 6 7 9 10 12 13 14 15 16 17 17 16 16 15 15 17 18 17 18 20 19 14 12 12 11 9 9 9 9 10 11 13 14 15 14 13 12 12
15 16 18 18 16 15 16 17 17 17 17 17 17 17 18 18 16 12 11 13 15 15 14 13 11 11 12 14 13 11 10 10 10 10 12 13 15 16 15 13 12 10 6 2 1 3 6 7 6 7 8 9 11 13 14 14 16 17 17 19 20 20 19 17 15 15 17 17 14 13 13 12 11 10 10 11 11 12 14 15 16 16 14 13 12
17 17 18 18 18 17 16 17 18 17 17 17 17 18 18 18 18 17 17 16 14 12 11 11 10 9 10 12 12 11 9 9 9 10 11 12 14 15 14 12 12 11 8 3 2 3 5 5 4 3 5 7 8 9 11 12 13 14 14 16 17 18 19 19 17 16 16 15 14 14 13 12 12 10 10 11 13 14 15 16 16 15 15 14 13
19 18 17 17 18 18 17 17 17 18 18 17 17 17 18 18 18 18 18 17 14 11 10 10 9 8 8 9 11 11 8 7 8 9 9 12 15 15 12 10 9 7 6 4 4 6 6 6 4 3 4 7 7 7 9 11 11 10 11 12 12 12 13 15 17 17 16 15 13 13 14 14 14 12 10 10 12 13 15 15 15 15 15 15 14
20 20 18 17 16 17 17 16 16 16 17 16 15 16 16 17 18 18 18 17 16 14 12 9 7 5 6 7 9 10 8 5 6 7 9 12 15 15 12 9 7 5 5 6 7 7 7 7 7 5 5 6 6 6 8 10 10 9 9 10 11 12 14 16 16 14 13 13 13 13 15 17 18 15 13 11 12 14 15 15 15 16 15 14 14
20 20 19 16 14 15 15 15 14 15 15 14 13 13 15 17 19 19 18 16 15 14 14 9 5 3 5 6 6 7 7 5 5 8 9 11 14 13 10 9 8 8 8 8 8 8 7 7 8 7 7 7 7 6 7 8 8 9 10 9 10 13 15 17 17 15 13 13 12 12 13 15 15 14 13 12 13 15 15 14 15 15 15 14 14
20 21 18 15 16 17 17 16 16 15 13 11 10 11 14 18 19 18 17 16 14 13 13 11 6 5 5 4 5 6 6 5 7 8 9 10 11 10 9 9 9 9 10 9 9 9 8 8 8 8 8 8 7 7 7 7 6 7 9 10 10 12 12 12 14 14 14 13 12 11 12 12 11 11 12 13 14 16 17 16 15 15 15 15 14
20 19 18 18 20 20 17 15 14 11 9 9 11 13 15 17 17 16 15 14 12 12 13 11 8 6 6 5 6 7 6 6 7 7 8 8 9 9 9 9 9 9 10 10 9 9 8 8 8 8 7 8 7 7 7 7 6 6 6 7 9 11 11 11 11 12 13 13 13 12 12 13 12 12 13 13 14 16 17 19 18 16 16 16 15
15 17 20 22 23 21 17 14 12 9 8 10 13 15 16 16 15 15 15 13 12 11 11 10 9 8 6 6 7 8 8 7 6 6 7 8 8 8 8 8 9 10 10 10 10 9 9 8 7 7 7 7 7 7 7 7 7 7 6 6 7 8 10 10 11 12 13 14 13 12 12 13 14 14 13 13 14 15 17 18 18 17 16 16 16
14 18 21 22 20 17 15 13 12 10 10 11 12 12 14 14 14 15 14 12 11 11 10 10 10 7 3 3 5 7 8 8 7 6 7 8 8 8 7 7 8 10 10 10 10 10 9 8 7 7 7 7 7 7 7 7 7 8 7 7 7 7 8 9 10 11 12 12 12 12 12 13 15 17 16 14 14 15 16 17 18 17 16 16 16
16 19 20 19 18 16 14 13 13 12 11 10 9 10 11 12 13 14 12 11 11 11 10 10 10 6 3 4 5 4 5 8 8 7 7 8 8 7 7 7 8 9 9 10 10 10 9 8 8 7 7 7 7 7 6 6 6 7 7 6 6 7 8 9 10 11 11 11 11 11 12 13 15 17 16 15 15 15 16 16 17 18 17 16 16
17 17 16 15 16 15 14 14 13 11 9 8 7 9 10 11 12 12 11 10 10 9 9 11 10 7 6 7 7 4 4 7 8 7 7 7 7 6 6 5 6 7 8 8 9 9 9 9 8 8 8 8 7 7 6 6 6 5 5 4 5 6 7 8 9 10 11 11 11 11 12 12 13 13 13 13 13 14 15 16 16 17 18 17 16
16 16 14 13 14 13 11 11 10 8 6 6 7 8 9 10 10 10 9 9 8 8 9 11 11 8 6 7 7 6 6 8 8 7 7 7 6 5 5 4 4 4 5 6 7 7 8 8 8 8 8 8 8 7 6 5 5 4 3 3 3 4 4 5 6 7 8 8 9 10 12 13 13 12 13 14 13 13 14 15 16 16 17 17 17
15 14 13 12 13 13 11 10 8 6 5 6 7 7 7 8 8 9 9 8 7 7 8 9 11 10 9 7 7 8 9 10 9 8 7 7 6 5 5 4 3 3 3 4 4 5 6 7 8 8 8 8 7 7 6 5 4 4 4 5 5 5 4 4 4 5 6 7 7 7 8 10 10 10 11 13 14 14 14 15 16 16 16 17 17
14 13 12 12 12 11 10 9 8 6 5 6 6 7 8 8 8 8 9 9 8 8 8 9 9 10 10 10 9 9 10 10 10 9 8 8 7 6 5 4 4 3 3 3 3 4 4 5 6 7 8 8 8 7 7 6 5 5 6 6 7 7 8 8 7 7 7 8 8 8 9 10 10 10 9 10 12 14 14 15 16 17 18 17 16
14 12 12 12 11 9 9 8 7 6 5 6 7 7 8 9 9 9 9 10 10 9 9 9 9 10 11 11 10 9 10 10 10 10 9 8 7 6 5 4 3 3 3 3 3 3 4 4 5 6 7 8 8 8 8 7 7 7 6 6 7 8 9 9 9 9 9 9 10 11 12 14 15 16 14 12 11 13 14 14 15 16 18 17 16
14 12 12 12 10 9 8 8 8 8 7 8 9 8 8 8 9 9 9 8 8 9 9 9 9 9 10 11 10 10 10 10 10 9 9 7 6 5 4 3 3 3 3 3 3 3 4 4 4 4 5 7 7 8 8 7 8 7 6 6 7 8 8 7 8 9 9 10 10 11 12 13 15 17 18 16 14 13 14 15 15 16 17 17 17
13 13 12 11 9 9 9 10 10 10 9 10 9 8 8 8 9 9 8 7 7 8 9 8 8 9 9 10 10 9 9 8 8 7 7 6 5 4 3 3 3 3 3 3 3 3 3 4 4 4 4 5 6 7 6 6 8 8 6 6 9 11 11 11 12 12 11 11 11 11 12 12 12 13 16 19 18 16 15 16 17 17 17 18 19
13 12 11 11 10 11 11 11 11 10 9 10 9 9 8 8 9 9 8 8 7 8 8 8 8 8 8 8 8 8 7 6 6 5 5 4 4 3 3 4 3 3 3 3 3 3 3 3 3 3 3 4 5 5 5 5 6 6 6 7 9 10 10 12 14 15 14 13 12 12 12 13 12 11 14 17 18 18 17 17 17 16 16 17 19
13 12 12 11 11 12 12 12 11 11 11 10 10 9 8 8 8 8 8 8 8 8 8 8 8 8 7 7 7 6 6 6 6 5 5 4 4 4 4 4 4 4 4 4 4 4 4 4 3 3 4 4 4 4 5 5 6 7 7 8 8 9 9 10 11 13 15 15 14 12 12 12 12 11 13 14 16 18 20 21 20 17 15 15 16
14 13 12 12 12 13 13 13 13 13 12 11 10 9 8 8 8 8 8 8 7 7 8 9 8 8 7 7 6 6 6 6 5 5 4 4 4 4 4 4 4 4 4 4 4 4 4 4 4 4 4 4 5 5 4 5 6 8 9 10 10 11 11 11 11 12 13 15 15 14 13 12 12 12 12 12 14 17 21 23 22 19 16 15 14
Wind_Direction
351 348 343 340 338 337 337 335 336 338 337 337 337 337 339 338 336 333 329 326 322 318 311 304 299 294 290 286 282 278 274 270 265 261 256 248 241 238 233 229 230 235 236 231 224 218 213 208 204 198 193 193 194 196 201 202 204 210 212 211 214 217 220 228 242 243 215 212 237 236 215 223 241 241 235 237 239 249 255 239 247 271 252 246 274
343 340 334 331 329 328 328 327 329 330 327 327 328 330 332 333 333 332 327 326 323 320 316 310 303 298 294 290 285 280 275 271 266 262 260 254 245 240 234 226 224 227 235 237 232 225 218 214 206 195 192 193 193 194 196 196 200 203 204 208 209 209 216 224 236 243 228 214 225 234 219 220 239 235 226 242 245 243 257 256 249 250 246 249 258
336 333 328 324 322 321 321 322 324 325 322 320 320 322 325 326 329 330 328 326 323 320 318 314 307 302 297 293 287 283 278 272 266 263 262 257 250 244 237 226 220 222 230 236 234 228 220 217 209 195 190 192 192 193 191 191 199 203 201 205 208 206 210 223 236 241 240 227 215 218 216 214 232 240 233 241 246 251 261 257 249 253 258 261 249
330 328 324 320 318 317 318 318 319 321 321 318 315 316 319 321 324 326 327 326 325 321 318 315 312 305 299 296 291 286 283 278 271 267 263 259 256 251 242 231 221 220 224 228 229 228 221 217 211 197 189 190 191 191 189 188 196 203 203 202 204 206 205 213 230 239 245 240 221 214 217 212 222 240 245 243 241 246 257 258 259 262 256 253 222
325 324 321 319 318 317 317 317 316 317 319 319 316 315 315 317 320 322 324 326 326 323 318 315 314 309 303 300 296 290 286 285 280 273 266 260 258 255 246 236 222 213 215 217 221 225 222 217 214 204 194 191 191 191 189 188 192 198 202 203 200 200 201 204 219 231 238 242 234 221 219 220 223 229 236 247 249 239 230 233 256 262 240 219 194
323 320 319 318 318 319 319 318 316 315 316 318 317 316 315 317 318 318 321 324 325 324 320 315 313 312 309 305 301 296 289 288 285 280 275 268 262 256 245 232 220 212 211 210 216 221 218 215 214 209 203 199 194 192 190 188 193 197 198 202 201 194 196 203 210 219 227 237 240 229 222 224 229 230 229 242 256 248 232 219 215 225 225 218 201
322 320 318 316 316 319 321 320 318 315 315 317 317 316 317 318 317 317 319 321 322 323 322 317 312 312 312 310 305 299 293 289 288 286 283 275 264 256 244 228 217 214 211 207 209 213 212 214 216 211 208 205 199 195 193 191 194 197 197 201 203 194 195 203 207 212 220 229 234 233 232 229 226 230 228 226 234 242 246 242 219 188 207 226 211
322 321 319 316 315 318 320 319 318 317 316 316 316 317 317 316 316 317 317 317 318 320 322 319 312 309 311 314 310 303 297 291 288 288 284 275 265 255 242 226 214 209 207 203 200 202 208 214 215 211 207 207 206 202 199 196 196 197 198 198 199 198 199 203 205 210 217 224 230 232 236 234 225 224 222 219 223 225 230 240 233 203 196 214 212
322 322 319 317 316 317 316 317 317 317 316 317 318 318 316 315 316 316 315 315 315 317 320 319 312 307 308 313 313 308 302 294 289 288 283 277 268 253 239 226 216 209 207 207 206 205 210 211 209 210 208 208 211 206 201 199 197 198 200 199 196 198 203 205 204 210 215 219 225 229 233 232 226 222 218 215 219 217 207 217 228 218 203 202 203
322 321 318 317 318 317 316 317 318 317 317 318 318 317 316 316 316 314 314 315 315 315 317 318 314 306 305 311 314 313 307 299 296 294 288 283 271 253 238 224 215 210 206 207 212 214 216 218 217 217 215 215 217 214 209 206 204 203 200 198 198 199 207 212 210 212 216 218 221 225 229 231 228 225 220 215 212 204 195 202 210 209 203 204 200
322 321 320 319 318 318 319 319 318 319 319 318 318 317 317 316 315 314 315 316 316 316 316 318 317 310 305 308 313 314 310 302 303 303 296 287 272 251 233 216 211 211 207 209 217 221 221 221 220 218 219 222 223 221 218 215 214 212 201 195 197 198 205 216 218 217 220 223 224 224 227 231 227 221 217 210 203 197 194 198 201 200 204 214 210
323 324 323 321 318 320 321 319 319 321 320 319 319 318 318 317 317 317 317 317 318 317 316 317 318 314 308 308 313 316 313 302 304 310 307 291 271 248 229 217 213 215 216 218 225 229 226 222 220 220 221 224 225 221 218 217 216 215 210 207 206 206 209 214 219 225 224 224 225 225 226 228 222 213 210 203 194 193 194 194 197 202 207 222 225
324 324 326 324 321 321 321 320 320 321 321 320 320 318 318 319 320 319 318 318 318 318 316 316 317 316 311 309 313 317 315 308 307 312 312 297 273 250 233 225 222 221 221 225 228 228 226 221 219 220 220 219 218 214 212 214 215 213 214 217 217 217 221 220 219 222 221 219 222 222 221 225 220 207 199 195 189 186 191 190 191 201 207 221 227
323 324 326 325 322 321 321 321 321 322 321 321 320 318 319 321 321 319 318 319 319 318 318 317 317 318 316 312 313 316 317 315 313 313 312 304 281 256 241 234 232 229 228 231 232 228 225 223 221 219 215 213 212 208 203 205 209 208 208 212 214 217 225 224 217 213 208 209 218 219 216 219 218 201 188 189 188 186 191 192 190 198 204 214 222
323 324 326 325 322 322 322 321 322 322 321 322 321 320 322 322 320 319 318 318 319 320 321 323 323 321 319 316 315 317 319 320 319 315 311 310 300 267 247 240 238 235 234 235 234 231 228 227 225 219 213 208 206 204 198 192 194 196 199 206 209 209 213 212 204 201 201 204 210 214 211 208 209 196 183 188 190 188 194 194 188 197 205 208 211
325 327 327 325 324 324 323 322 323 323 323 324 324 324 324 321 320 320 319 318 320 321 324 327 327 323 320 319 316 313 317 322 322 318 312 310 311 296 266 250 243 241 242 240 236 231 228 227 224 217 211 207 204 203 201 195 188 188 195 204 209 208 205 203 199 194 194 201 207 208 197 194 199 192 180 185 189 187 191 192 188 199 205 206 203
328 329 328 327 328 327 325 325 326 326 326 325 325 325 322 319 320 321 320 320 321 321 322 321 321 320 320 320 318 315 315 320 321 319 312 306 306 305 292 272 258 251 250 247 237 228 226 224 218 211 207 205 207 209 208 203 192 188 195 203 206 211 204 198 205 207 203 205 211 212 202 197 201 196 184 187 189 182 188 198 200 204 210 214 208
332 331 329 329 329 327 326 327 328 328 327 326 325 324 320 318 320 320 320 321 320 319 318 316 314 315 315 314 320 323 319 317 318 318 315 310 307 303 295 287 275 262 257 254 242 232 230 225 217 213 210 208 209 210 208 203 195 191 196 202 206 212 204 190 198 210 212 213 213 212 212 208 207 205 199 200 198 193 200 210 204 205 215 225 219
332 330 329 328 327 327 327 328 328 327 326 325 324 323 321 320 321 320 320 320 319 318 318 315 314 313 310 308 312 317 317 313 312 312 312 310 305 299 293 286 278 269 261 253 244 238 235 229 223 220 217 212 209 207 205 204 202 197 198 202 209 214 208 197 195 201 206 211 212 211 213 212 207 207 211 214 213 213 216 218 216 222 226 222 206
331 329 328 327 327 328 328 327 327 325 324 325 324 322 322 322 322 322 322 321 322 321 318 315 313 311 309 308 306 306 310 314 311 307 305 303 297 293 292 288 279 272 260 246 238 233 227 225 223 218 213 212 210 207 206 206 206 205 202 203 211 217 211 202 201 200 198 202 206 207 208 206 202 203 211 217 219 220 221 220 224 236 236 223 201
330 329 329 328 329 331 330 328 327 323 321 323 323 322 322 323 324 323 322 324 326 324 320 316 312 311 311 312 311 309 312 316 316 312 307 304 299 290 289 295 293 283 264 240 229 225 217 214 214 209 209 212 212 208 205 204 205 207 204 204 214 219 208 198 197 199 199 199 202 204 205 202 199 200 204 209 213 218 222 223 223 224 228 230 217
328 329 329 329 330 331 330 328 325 322 322 322 322 321 322 323 324 323 323 326 327 326 325 322 316 315 316 316 317 320 320 319 320 318 314 311 307 296 283 283 287 287 276 247 230 225 217 211 210 210 211 214 213 207 202 199 202 206 205 207 217 213 195 189 190 192 195 199 200 203 206 205 204 205 204 204 205 208 213 219 219 213 210 213 215
326 329 330 330 330 330 330 330 326 322 322 321 319 318 320 322 323 323 324 327 329 330 331 329 324 324 325 325 325 329 332 330 326 323 325 325 317 305 291 273 267 273 277 263 246 236 223 215 216 215 213 213 211 206 199 195 199 206 207 210 216 208 191 188 188 184 186 193 198 203 207 206 207 207 206 206 204 199 200 206 205 196 192 195 202
320 324 327 328 330 331 331 331 330 327 325 322 317 317 319 321 321 323 326 328 330 333 334 334 333 332 334 333 330 329 334 336 333 332 339 343 335 319 306 290 275 262 253 260 267 256 236 227 226 223 218 215 211 204 200 196 197 203 208 210 211 207 200 198 194 184 181 188 198 206 211 211 210 208 206 204 197 190 189 191 186 181 184 189 196
314 317 322 325 327 329 329 331 332 331 326 322 319 317 319 320 320 322 325 326 330 334 335 337 337 336 336 335 332 331 332 333 335 340 346 349 344 334 324 309 295 277 257 251 258 254 248 245 238 231 226 219 210 201 198 195 193 199 206 208 206 204 203 203 200 196 192 191 192 199 208 212 211 204 194 186 182 182 183 181 178 178 181 176 175
309 309 313 318 321 323 327 330 332 331 328 326 324 321 320 320 319 321 323 326 330 334 336 337 338 337 336 334 333 334 330 329 339 348 349 348 345 339 331 319 308 296 277 257 243 241 250 254 244 237 228 215 205 200 199 194 190 197 204 206 206 205 206 206 204 202 202 198 189 187 190 193 193 185 172 171 178 186 186 182 180 182 183 180 177
304 303 306 312 314 317 324 328 328 327 329 329 327 324 324 324 321 320 322 327 331 333 336 338 337 335 334 333 335 334 331 339 358 357 349 346 343 339 334 322 314 309 291 266 250 247 249 242 222 223 221 210 203 203 203 197 196 204 210 212 213 211 210 210 208 207 211 209 201 184 172 177 190 189 182 183 189 193 192 190 191 189 187 191 194
297 297 302 306 306 310 319 324 323 325 328 329 327 325 327 327 324 321 322 326 330 332 334 335 334 332 330 329 330 329 331 349 3 357 348 344 341 339 335 324 315 315 303 276 255 240 234 224 203 190 199 205 204 205 206 205 208 214 215 214 214 215 216 215 214 218 219 212 205 192 175 180 197 196 189 192 195 193 193 197 201 199 193 195 201
293 297 303 306 304 306 313 318 321 323 325 327 326 324 323 321 320 321 323 324 325 322 320 322 326 326 324 323 324 323 328 344 352 347 347 347 343 341 338 327 313 302 290 278 251 223 207 198 192 183 182 192 200 205 206 206 208 211 212 211 213 220 224 222 219 220 217 206 200 198 188 185 195 196 194 199 199 196 196 199 202 204 202 204 209
294 303 310 311 307 305 306 311 316 319 321 324 327 325 321 316 310 310 317 322 322 315 307 309 314 313 308 307 310 311 315 326 334 339 345 348 347 346 340 330 319 304 289 277 251 238 226 199 193 194 189 188 194 199 201 202 202 204 206 208 211 220 226 226 219 216 216 212 207 203 198 192 190 195 201 203 201 199 201 202 204 207 208 213 218
297 305 312 312 309 303 300 303 309 312 315 320 324 325 326 323 313 302 305 318 322 317 306 302 306 309 305 302 300 298 299 308 322 335 343 346 349 350 347 342 335 319 300 282 243 255 257 233 208 205 201 199 202 204 203 203 205 204 205 208 211 214 218 219 216 217 222 222 216 207 202 198 194 197 204 205 204 204 202 201 206 210 213 218 223
292 301 308 309 306 299 295 297 302 305 309 315 320 323 326 327 324 317 311 312 315 315 309 301 302 310 310 307 305 298 289 294 311 329 338 343 348 351 354 356 352 339 323 303 209 245 253 246 233 222 216 214 215 215 213 210 209 208 209 213 217 219 220 218 214 214 218 218 213 209 206 202 199 201 203 202 205 209 206 203 206 213 217 220 223
288 294 298 301 303 300 294 293 296 298 303 309 316 319 321 324 326 324 319 311 304 302 302 298 300 311 316 314 313 307 292 287 303 323 333 339 345 349 354 355 354 353 355 349 311 295 278 263 258 255 246 243 241 233 225 221 218 215 212 214 218 223 226 227 224 221 217 213 210 211 208 199 196 200 204 204 206 211 212 209 207 210 215 218 219
282 284 282 286 294 297 294 290 289 292 296 302 308 313 316 320 321 319 318 314 306 297 295 289 284 297 316 319 319 320 309 290 296 316 330 336 342 348 346 330 325 343 4 1 333 322 316 306 298 274 246 249 257 251 237 232 228 219 213 216 219 217 217 222 227 227 223 217 213 210 206 201 200 201 204 209 212 215 215 212 208 207 211 213 215
278 281 277 273 276 283 286 285 283 284 289 294 302 308 311 313 315 316 315 311 304 300 300 285 251 261 315 326 324 326 323 299 294 314 329 334 342 350 350 331 319 324 336 337 331 323 317 312 306 295 271 258 254 248 242 241 239 231 224 224 224 220 220 224 227 225 219 216 212 209 213 219 221 217 212 212 218 221 218 212 210 210 211 212 212
271 276 276 271 269 274 279 279 280 282 284 289 299 307 306 307 313 317 313 304 296 296 301 296 263 268 317 329 332 332 328 316 312 318 327 337 349 356 353 343 340 335 328 330 331 324 316 310 303 297 290 279 268 258 251 249 244 238 234 229 226 228 232 233 233 230 225 221 215 210 214 221 224 221 216 213 216 219 218 213 211 212 212 211 211
274 279 280 279 281 283 284 288 290 286 283 286 293 297 299 305 312 315 310 301 293 293 297 298 295 292 295 316 358 354 338 332 334 333 336 347 355 355 347 340 340 337 333 334 333 325 318 312 305 299 294 286 280 273 264 258 252 243 238 234 230 231 232 232 229 226 223 222 219 212 207 207 207 210 213 211 210 213 215 213 212 213 213 212 212
281 284 283 283 283 281 282 290 291 282 275 283 289 292 297 304 311 313 306 296 289 288 291 293 297 302 304 327 353 351 331 322 332 339 344 346 345 342 339 339 340 338 336 336 334 328 322 317 310 304 299 292 288 285 278 271 267 259 252 247 241 237 235 234 229 223 221 223 225 221 215 212 211 210 209 208 209 210 211 211 210 210 209 209 210
287 284 278 277 276 271 271 278 281 273 272 281 286 292 299 305 310 312 306 295 287 289 291 290 295 306 319 331 336 331 323 320 326 334 336 335 333 334 336 335 337 338 338 337 335 329 324 323 320 312 308 301 294 290 288 283 278 270 261 253 244 237 234 232 228 226 225 226 228 228 223 217 214 211 208 209 212 211 209 209 207 203 201 200 203
291 287 282 277 269 262 262 265 258 252 258 269 278 289 299 307 311 310 302 292 288 292 291 289 295 305 313 319 329 331 328 328 333 334 327 322 321 324 328 330 334 337 337 335 333 330 327 327 327 322 318 314 307 300 294 290 285 276 265 256 246 237 230 226 225 227 227 225 225 225 222 219 219 218 215 215 216 214 210 207 204 201 200 199 202
286 289 287 277 262 249 244 240 236 238 247 259 273 286 296 306 310 305 296 288 289 293 289 287 294 295 274 286 319 340 326 321 325 322 315 313 313 315 320 324 329 333 336 335 332 331 329 327 326 327 327 324 319 313 302 293 288 280 268 259 249 240 234 231 227 227 228 227 226 225 222 221 222 221 218 219 222 219 213 208 204 202 204 206 207
290 292 286 268 250 239 231 226 228 233 236 244 264 283 295 303 303 297 292 288 289 292 291 291 293 285 262 279 307 324 305 306 312 308 302 305 307 306 309 315 321 330 336 336 332 330 327 323 322 324 328 331 332 328 316 305 299 288 271 257 245 235 232 232 228 227 229 230 229 228 225 221 218 217 216 219 221 217 214 212 207 203 205 209 209
293 291 282 261 246 240 231 223 222 224 230 248 271 288 298 302 299 290 285 283 283 286 290 292 296 293 277 281 300 304 292 294 299 297 294 299 300 297 297 299 305 321 328 330 330 329 324 319 316 315 319 325 328 328 325 321 313 303 291 281 270 253 241 237 233 231 234 233 230 233 237 237 235 232 230 229 227 222 220 218 212 205 205 209 210
296 288 278 261 249 244 235 223 220 226 246 266 278 283 290 297 297 290 285 282 279 282 290 296 301 302 298 294 296 295 292 294 295 292 290 290 288 288 292 291 292 306 316 323 334 338 329 318 314 310 308 311 315 316 315 312 304 297 296 296 300 301 292 276 259 244 239 237 233 234 240 242 239 236 236 238 239 233 224 218 211 204 202 206 209
297 291 280 266 252 240 225 217 225 239 250 258 268 277 282 283 284 282 282 283 283 283 288 293 296 295 294 294 294 293 292 292 291 287 285 284 282 284 291 293 291 296 302 310 326 339 338 328 320 310 302 297 297 297 298 296 289 285 279 277 283 290 291 291 292 283 264 252 245 242 242 240 236 230 227 235 241 237 227 217 210 203 201 201 203
297 293 282 271 256 231 211 212 226 235 236 242 254 269 275 275 274 272 274 280 286 285 281 281 283 285 286 289 290 291 290 289 287 284 283 283 282 283 289 294 292 292 295 298 309 324 332 331 329 322 311 301 291 284 285 289 289 287 286 284 285 287 289 293 296 291 279 265 256 252 251 251 251 247 240 233 234 236 230 219 207 200 199 198 196
299 295 284 274 256 224 207 215 224 224 232 246 253 257 263 268 269 265 259 261 274 281 278 274 275 279 282 285 286 287 288 287 285 283 281 280 279 280 285 293 295 294 290 289 301 319 328 327 328 328 324 318 306 291 281 274 268 271 289 302 292 281 275 274 278 280 277 268 260 255 250 246 247 248 244 237 232 233 233 229 219 207 201 199 198
298 296 287 274 253 224 214 219 222 224 235 246 246 245 249 256 262 260 248 239 252 272 276 274 272 274 278 282 285 287 287 285 281 279 277 275 274 277 287 296 298 296 291 289 299 317 323 324 328 329 329 331 325 312 299 281 263 255 259 271 270 266 264 263 265 270 273 269 264 263 258 249 241 238 235 233 232 231 233 236 233 223 213 210 207
294 293 285 271 252 233 222 218 218 224 235 240 239 241 243 244 251 256 248 237 244 261 270 273 275 275 277 279 281 281 281 282 280 276 274 273 275 282 289 291 291 290 286 287 297 309 311 313 322 327 329 336 337 328 320 309 287 268 256 256 260 265 271 272 271 270 267 264 264 267 264 257 247 233 225 227 230 229 229 233 237 233 224 217 211
291 287 281 270 255 240 226 218 221 230 234 233 234 240 242 242 249 254 248 240 246 257 261 264 268 270 271 273 275 274 274 275 277 277 276 277 282 287 290 291 290 286 283 284 292 300 303 305 314 323 325 330 336 337 330 320 309 298 286 278 275 276 279 282 282 276 269 263 262 263 262 257 247 234 223 220 222 225 227 230 233 230 223 215 208
286 280 276 268 256 242 228 220 224 231 229 221 220 226 232 238 248 251 245 240 246 257 260 259 257 258 261 262 263 265 268 268 269 271 274 279 287 292 294 294 290 286 285 287 290 293 298 301 308 321 325 322 323 333 336 325 314 307 300 293 289 286 282 283 287 286 278 267 259 256 255 252 244 234 223 215 214 220 227 229 228 222 217 212 206